Miscellaneous Local Product
Issued by NWS North Platte, NE

Home | Current Version | Previous Version | Text Only | Print | Product List | Glossary On
Versions: 1 2 3 4 5 6 7 8 9 10 11 12 13 14 15 16 17 18 19 20 21 22 23 24 25 26 27 28 29 30 31 32 33 34 35 36 37 38 39 40 41 42 43 44 45 46 47 48 49 50
000
AXUS43 KLBF 290610
MISLBF


WESTERN AND NORTH CENTRAL NEBRASKA HOURLY WEATHER ROUNDUP
NATIONAL WEATHER SERVICE NORTH PLATTE NE
100 AM CDT MON AUG 29 2016

NOTE: "FAIR" INDICATES FEW OR NO CLOUDS BELOW 12,000 FEET WITH NO
SIGNIFICANT WEATHER AND/OR OBSTRUCTIONS TO VISIBILITY.

NOTE: STATIONS NOT REPORTING VARIABLES SUCH AS SKY/WEATHER OR
PRESSURE ARE PROVIDED BY RAWS AND APRS NETWORKS AND ARE NOT UNDER
NATIONAL WEATHER SERVICE QUALITY CONTROL.

...OBSERVATIONS IN AND NEAR THE EASTERN PANHANDLE OF NEBRASKA...

CITY           SKY/WX    TMP DP  RH WIND       PRES   REMARKS
PINE RIDGE     PTCLDY    71  58  63 S12       30.10S
CHADRON        PTCLDY    67  52  58 CALM      30.10R
ALLIANCE       PTCLDY    60  56  86 SE10      30.15S
SIDNEY         CLEAR     61  50  67 S5        30.19S
CRESCENT LAKE    N/A     64  58  80 S6          N/A
$$

...OBSERVATIONS IN NORTHERN NEBRASKA AND FAR SOUTHERN SOUTH DAKOTA...

CITY           SKY/WX    TMP DP  RH WIND       PRES   REMARKS
WINNER         FAIR      77  63  61 S17       30.06R
VALENTINE      CLEAR     72  59  63 S15       30.10S
THEDFORD       CLEAR     66  60  81 S7        30.14F
AINSWORTH      CLEAR     68  62  81 S7        30.11F
O`NEILL        CLEAR     73  69  88 S10       30.12S
ORD            PTCLDY    72  66  81 SE9       30.13R
BROKEN BOW     CLEAR     60  59  96 CALM      30.15R
VALENTINE NWR    N/A     67  59  75 S8          N/A
BUTTE            N/A     70  67  90 S6          N/A
HALSEY           N/A     69  60  73 CALM        N/A
EWING            N/A     70  67  90 S3          N/A
$$

...OBSERVATIONS IN SOUTHWEST NEBRASKA AND FAR NORTHEAST COLORADO...

CITY           SKY/WX    TMP DP  RH WIND       PRES   REMARKS
HOLYOKE        FAIR      63  59  88 SW3       30.18R
IMPERIAL       MOCLDY    64  60  87 SE9       30.15F
OGALLALA       CLOUDY    68  59  73 E5        30.14F
NORTH PLATTE   CLOUDY    62  58  86 SE7       30.13F
MCCOOK         PTCLDY    69  62  78 S6        30.13F
LEXINGTON      CLOUDY    66  63  90 E6        30.15R
STAPLETON        N/A     62  59  89 CALM        N/A
GOTHENBURG       N/A     67  60  78 CALM        N/A
CALLAWAY         N/A     60  59  96 SE3         N/A
$$

...OBSERVATIONS IN CENTRAL LINCOLN COUNTY AREA...

CITY           SKY/WX    TMP DP  RH WIND       PRES   REMARKS
N.P. AIRPORT   CLOUDY    62  58  86 SE7       30.13F
N.P. DOWNTOWN    N/A     68  60  76 CALM        N/A
N.P. SOUTHEAST   N/A     66  60  80 CALM        N/A
N.P. HILLCREST   N/A     67  60  79 E6          N/A
$$

...SOME OBSERVATIONS FROM AROUND THE REGION...

CITY           SKY/WX    TMP DP  RH WIND       PRES   REMARKS
DENVER         LGT RAIN  63  47  55 S12       30.25F
LARAMIE        CLOUDY    56  43  61 S12       30.35S
CHEYENNE       CLOUDY    61  45  55 W9        30.28F
SCOTTSBLUFF    CLOUDY    62  55  77 CALM      30.15S
RAPID CITY     CLEAR     60  50  69 N3        30.07S
BISMARCK       CLEAR     72  56  57 N12G20    30.04R
PIERRE         CLEAR     77  60  55 S15G24    29.98S
SIOUX FALLS    FAIR      73  32  22 S9        30.10S
OMAHA          CLOUDY    72  65  78 E3        30.14S
GRAND ISLAND   LGT RAIN  68  64  87 S10       30.14F
KANSAS CITY    CLOUDY    72  67  84 SE7       30.12F
WICHITA        CLOUDY    75  70  84 CALM      30.10F
OKLAHOMA CITY  PTCLDY    72  66  81 S5        30.09F
DALLAS         PTCLDY    77  71  82 S3        30.04F
AMARILLO       CLOUDY    67  64  90 SE9       30.18S
DODGE CITY     PTCLDY    66  64  93 S5        30.15S
HAYS           PTCLDY    66  57  72 SE6       30.15S
GOODLAND       PTCLDY    66  62  87 S12       30.18S
$$




USA.gov is the U.S. government's official web portal to all federal, state and local government web resources and services.